This is the latest recevied weather packets stored in our database for station/object W7PLC. If no packets are shown the sender has not sent any weather packets the latest 1 day(s).
| Time | Temp. | Humidity | Pressure | Rain* | Wind** | Luminosity | Snow |
|---|---|---|---|---|---|---|---|
| 1778025680 | 20° C | 66% | 1013.5 hPa | 0 mm | 0 m/s | 340 W/m² | - |
| 1778025378 | 20° C | 66% | 1013.7 hPa | 0 mm | 0.45 m/s, 53° | 400 W/m² | - |
| 1778025074 | 19.44° C | 69% | 1013.7 hPa | 0 mm | 0.45 m/s, 312° | 428 W/m² | - |
| 1778024771 | 20° C | 69% | 1013.6 hPa | 0 mm | 0 m/s | 490 W/m² | - |
| 1778024468 | 19.44° C | 69% | 1013.6 hPa | 0 mm | 0.45 m/s, 47° | 382 W/m² | - |
| 1778024166 | 19.44° C | 70% | 1013.9 hPa | 0 mm | 0 m/s | 203 W/m² | - |
| 1778023862 | 18.89° C | 71% | 1013.9 hPa | 0 mm | 0 m/s | 372 W/m² | - |
| 1778023560 | 18.89° C | 72% | 1013.9 hPa | 0 mm | 0.45 m/s, 344° | 220 W/m² | - |
| 1778023258 | 18.89° C | 73% | 1013.8 hPa | 0 mm | 0 m/s | 180 W/m² | - |
| 1778022954 | 18.33° C | 73% | 1014 hPa | 0 mm | 0 m/s | 175 W/m² | - |
| 1778022653 | 18.33° C | 73% | 1014.1 hPa | 0 mm | 0 m/s | 166 W/m² | - |
| 1778022351 | 18.33° C | 74% | 1014.1 hPa | 0 mm | 0.89 m/s, 78° | 168 W/m² | - |
| 1778022047 | 17.78° C | 75% | 1014.4 hPa | 0 mm | 0 m/s | 193 W/m² | - |
| 1778021744 | 17.22° C | 76% | 1014.4 hPa | 0 mm | 0 m/s | 124 W/m² | - |
| 1778021440 | 17.78° C | 76% | 1014.4 hPa | 0 mm | 0.45 m/s, 356° | 117 W/m² | - |
| 1778021137 | 17.22° C | 77% | 1014.6 hPa | 0 mm | 0 m/s | 120 W/m² | - |
| 1778020834 | 17.22° C | 76% | 1014.2 hPa | 0 mm | 0 m/s | 119 W/m² | - |
| 1778020531 | 17.22° C | 77% | 1014.6 hPa | 0 mm | 0 m/s | 114 W/m² | - |
| 1778020227 | 17.22° C | 77% | 1014.7 hPa | 0 mm | 0 m/s | 111 W/m² | - |
| 1778019924 | 17.22° C | 77% | 1014.4 hPa | 0 mm | 0 m/s | 111 W/m² | - |
| 1778019620 | 17.22° C | 77% | 1014.6 hPa | 0 mm | 0 m/s | 108 W/m² | - |
| 1778019317 | 17.22° C | 78% | 1014.6 hPa | 0 mm | 0 m/s | 99 W/m² | - |
| 1778019014 | 16.67° C | 80% | 1014.5 hPa | 0 mm | 0 m/s | 86 W/m² | - |
| 1778018711 | 16.67° C | 79% | 1014.8 hPa | 0 mm | 0 m/s | 80 W/m² | - |
| 1778018409 | 16.67° C | 79% | 1014.6 hPa | 0 mm | 0 m/s | 84 W/m² | - |
* Rain latest hour (hover to see other rain measurements)
** Current wind speed in m/s (hover to see current wind gust speed)